EZY597J EGKK-EGAA

Flight info

Callsign EZY597J
Flight time 0h 59m
Altitude 36000
Route LAM L10 BPK UN601 LESTA UP6 RODOL UM65 TENSO L603 BELOX DCT REMSI DCT UVPOK M147 ROBOP M146 IPSET P6 BELZU
Aircraft A319/M-SDE3FGHIRWY/LB1

Departure

Time 2026-05-07 17:22
Airport London Gatwick Airport (EGKK)

Arrival

Time 2026-05-07 18:22
Airport Belfast International Airport (EGAA)
Time Latitude Longitude Altitude Speed Heading
2026-05-07 16:36 51.15939 -0.17993 212 ft 0 kts 77°
2026-05-07 17:08 51.15938 -0.18003 216 ft 3 kts 77°
2026-05-07 17:08 51.15934 -0.18035 209 ft 3 kts 77°
2026-05-07 17:08 51.15930 -0.18062 211 ft 3 kts 84°
2026-05-07 17:09 51.15931 -0.18092 205 ft 3 kts 118°
2026-05-07 17:09 51.15943 -0.18115 215 ft 3 kts 156°
2026-05-07 17:09 51.15961 -0.18124 211 ft 3 kts 167°
2026-05-07 17:09 51.15973 -0.18128 211 ft 0 kts 167°
2026-05-07 17:11 51.15969 -0.18127 211 ft 2 kts 168°
2026-05-07 17:12 51.15936 -0.18116 216 ft 7 kts 168°
2026-05-07 17:12 51.15894 -0.18101 205 ft 6 kts 167°
2026-05-07 17:12 51.15840 -0.18082 205 ft 10 kts 168°
2026-05-07 17:12 51.15775 -0.18060 205 ft 8 kts 168°
2026-05-07 17:13 51.15726 -0.18043 210 ft 6 kts 168°
2026-05-07 17:13 51.15689 -0.18068 213 ft 8 kts 232°
2026-05-07 17:13 51.15672 -0.18169 212 ft 10 kts 257°
2026-05-07 17:13 51.15658 -0.18265 211 ft 8 kts 257°
2026-05-07 17:14 51.15648 -0.18342 214 ft 8 kts 258°
2026-05-07 17:14 51.15632 -0.18458 208 ft 12 kts 257°
2026-05-07 17:14 51.15615 -0.18583 215 ft 11 kts 257°
2026-05-07 17:14 51.15598 -0.18705 207 ft 11 kts 258°
2026-05-07 17:15 51.15577 -0.18812 209 ft 9 kts 232°
2026-05-07 17:15 51.15525 -0.18824 209 ft 8 kts 169°
2026-05-07 17:15 51.15460 -0.18801 211 ft 11 kts 168°
2026-05-07 17:15 51.15385 -0.18775 212 ft 10 kts 167°
2026-05-07 17:16 51.15323 -0.18754 211 ft 8 kts 168°
2026-05-07 17:16 51.15254 -0.18729 212 ft 13 kts 165°
2026-05-07 17:16 51.15166 -0.18702 205 ft 13 kts 182°
2026-05-07 17:16 51.15125 -0.18814 210 ft 13 kts 252°
2026-05-07 17:17 51.15102 -0.18952 205 ft 13 kts 261°
2026-05-07 17:17 51.15089 -0.19096 211 ft 13 kts 258°
2026-05-07 17:17 51.15063 -0.19238 205 ft 14 kts 255°
2026-05-07 17:17 51.15042 -0.19386 214 ft 14 kts 257°
2026-05-07 17:18 51.15021 -0.19535 205 ft 14 kts 258°
2026-05-07 17:18 51.15000 -0.19689 209 ft 14 kts 257°
2026-05-07 17:18 51.14977 -0.19856 205 ft 18 kts 258°
2026-05-07 17:18 51.14948 -0.20061 205 ft 19 kts 257°
2026-05-07 17:19 51.14919 -0.20275 205 ft 20 kts 258°
2026-05-07 17:19 51.14889 -0.20495 205 ft 21 kts 257°
2026-05-07 17:19 51.14857 -0.20720 205 ft 21 kts 258°
2026-05-07 17:19 51.14827 -0.20941 214 ft 21 kts 257°
2026-05-07 17:20 51.14792 -0.21165 209 ft 20 kts 252°
2026-05-07 17:20 51.14761 -0.21348 205 ft 14 kts 257°
2026-05-07 17:20 51.14705 -0.21407 205 ft 10 kts 171°
2026-05-07 17:20 51.14646 -0.21348 209 ft 11 kts 150°
2026-05-07 17:21 51.14572 -0.21310 208 ft 11 kts 158°
2026-05-07 17:21 51.14519 -0.21216 208 ft 11 kts 108°
2026-05-07 17:21 51.14530 -0.21094 211 ft 12 kts 78°
2026-05-07 17:21 51.14583 -0.20713 218 ft 74 kts 78°
2026-05-07 17:22 51.14747 -0.19525 216 ft 143 kts 77°
2026-05-07 17:22 51.14985 -0.17834 680 ft 158 kts 79°
2026-05-07 17:22 51.15228 -0.16124 1519 ft 160 kts 75°
2026-05-07 17:22 51.15489 -0.14290 2056 ft 179 kts 75°
2026-05-07 17:23 51.15782 -0.12238 2516 ft 204 kts 76°
2026-05-07 17:23 51.16109 -0.09885 3020 ft 231 kts 76°
2026-05-07 17:23 51.16495 -0.07284 3671 ft 252 kts 71°
2026-05-07 17:23 51.17354 -0.04778 4502 ft 263 kts 51°
2026-05-07 17:24 51.18510 -0.02500 5489 ft 268 kts 50°
2026-05-07 17:24 51.19692 -0.00187 5814 ft 269 kts 51°
2026-05-07 17:24 51.20867 0.02128 6018 ft 270 kts 51°
2026-05-07 17:24 51.22030 0.04462 6029 ft 269 kts 52°
2026-05-07 17:25 51.23175 0.06827 6035 ft 269 kts 52°
2026-05-07 17:25 51.24306 0.09205 6037 ft 269 kts 54°
2026-05-07 17:25 51.25099 0.11929 6715 ft 273 kts 75°
2026-05-07 17:25 51.25479 0.14913 7744 ft 276 kts 79°
2026-05-07 17:26 51.25847 0.17957 8684 ft 282 kts 79°
2026-05-07 17:26 51.26223 0.21073 9600 ft 289 kts 78°
2026-05-07 17:26 51.26607 0.24262 10452 ft 296 kts 79°
2026-05-07 17:26 51.27175 0.27516 10701 ft 317 kts 64°
2026-05-07 17:27 51.28503 0.30393 11263 ft 328 kts 40°
2026-05-07 17:27 51.30461 0.32265 12062 ft 331 kts 17°
2026-05-07 17:27 51.32732 0.32740 12896 ft 333 kts 353°
2026-05-07 17:27 51.34936 0.31694 13901 ft 333 kts 329°
2026-05-07 17:28 51.36898 0.29698 14661 ft 336 kts 324°
2026-05-07 17:28 51.38858 0.27627 15428 ft 339 kts 324°
2026-05-07 17:28 51.40836 0.25533 16174 ft 343 kts 324°
2026-05-07 17:28 51.42838 0.23417 16894 ft 347 kts 324°
2026-05-07 17:29 51.44864 0.21280 17652 ft 350 kts 324°
2026-05-07 17:29 51.46911 0.19121 18374 ft 354 kts 324°
2026-05-07 17:29 51.48982 0.16938 19014 ft 358 kts 324°
2026-05-07 17:29 51.51068 0.14736 19661 ft 361 kts 324°
2026-05-07 17:30 51.53171 0.12507 20309 ft 364 kts 324°
2026-05-07 17:30 51.55295 0.10256 20954 ft 367 kts 324°
2026-05-07 17:30 51.57439 0.07989 21593 ft 371 kts 324°
2026-05-07 17:30 51.59599 0.05700 22239 ft 374 kts 324°
2026-05-07 17:31 51.61754 0.03414 22868 ft 377 kts 324°
2026-05-07 17:31 51.63910 0.01125 23488 ft 381 kts 324°
2026-05-07 17:31 51.66131 -0.01233 24038 ft 384 kts 324°
2026-05-07 17:31 51.68368 -0.03613 24590 ft 387 kts 324°
2026-05-07 17:32 51.70618 -0.06013 25114 ft 389 kts 324°
2026-05-07 17:32 51.72886 -0.08432 25621 ft 392 kts 324°
2026-05-07 17:32 51.75201 -0.10901 26135 ft 395 kts 324°
2026-05-07 17:32 51.76743 -0.12483 26468 ft 397 kts 326°
2026-05-07 17:33 51.79898 -0.15536 27099 ft 401 kts 327°
2026-05-07 17:33 51.82327 -0.17795 27603 ft 404 kts 328°
2026-05-07 17:33 51.83952 -0.19297 27885 ft 406 kts 328°
2026-05-07 17:33 51.86405 -0.21577 28363 ft 409 kts 327°
2026-05-07 17:34 51.88873 -0.23896 28829 ft 412 kts 327°
2026-05-07 17:34 51.91350 -0.26251 29291 ft 414 kts 327°
2026-05-07 17:34 51.93840 -0.28632 29762 ft 417 kts 327°
2026-05-07 17:34 51.96347 -0.31039 30219 ft 420 kts 327°
2026-05-07 17:35 51.98870 -0.33469 30618 ft 423 kts 327°
2026-05-07 17:35 52.01414 -0.35924 31019 ft 426 kts 327°
2026-05-07 17:35 52.03967 -0.38396 31409 ft 429 kts 327°
2026-05-07 17:35 52.06531 -0.40874 31875 ft 429 kts 327°
2026-05-07 17:36 52.09095 -0.43345 32436 ft 428 kts 327°
2026-05-07 17:36 52.11654 -0.45808 32975 ft 427 kts 327°
2026-05-07 17:36 52.14208 -0.48271 33507 ft 426 kts 327°
2026-05-07 17:36 52.16755 -0.50741 34035 ft 426 kts 326°
2026-05-07 17:37 52.19254 -0.53171 34470 ft 426 kts 326°
2026-05-07 17:37 52.21797 -0.55645 34876 ft 426 kts 327°
2026-05-07 17:37 52.24349 -0.58127 35256 ft 426 kts 327°
2026-05-07 17:37 52.26893 -0.60604 35626 ft 427 kts 327°
2026-05-07 17:38 52.28584 -0.62251 35866 ft 427 kts 327°
2026-05-07 17:38 52.31140 -0.64745 36017 ft 428 kts 327°
2026-05-07 17:38 52.36182 -0.69668 36038 ft 419 kts 327°
2026-05-07 17:39 52.41176 -0.74561 36041 ft 418 kts 327°
2026-05-07 17:39 52.46154 -0.79482 36043 ft 418 kts 326°
2026-05-07 17:40 52.51136 -0.84411 36046 ft 418 kts 327°
2026-05-07 17:40 52.56123 -0.89330 36040 ft 418 kts 327°
2026-05-07 17:41 52.61111 -0.94276 36032 ft 418 kts 327°
2026-05-07 17:41 52.66100 -0.99227 36030 ft 419 kts 327°
2026-05-07 17:42 52.70995 -1.04106 36031 ft 419 kts 326°
2026-05-07 17:42 52.75693 -1.09704 36029 ft 415 kts 314°
2026-05-07 17:43 52.79879 -1.16295 36026 ft 416 kts 314°
2026-05-07 17:43 52.84079 -1.22887 36026 ft 417 kts 314°
2026-05-07 17:44 52.88282 -1.29498 36025 ft 417 kts 314°
2026-05-07 17:44 52.92481 -1.36119 36024 ft 417 kts 314°
2026-05-07 17:45 52.96683 -1.42772 36025 ft 418 kts 314°
2026-05-07 17:45 53.00881 -1.49447 36021 ft 418 kts 314°
2026-05-07 17:46 53.05083 -1.56138 36022 ft 419 kts 314°
2026-05-07 17:46 53.09261 -1.62799 36021 ft 419 kts 314°
2026-05-07 17:47 53.13490 -1.69575 36021 ft 419 kts 314°
2026-05-07 17:47 53.17684 -1.76330 36019 ft 420 kts 314°
2026-05-07 17:48 53.21853 -1.83061 36022 ft 420 kts 314°
2026-05-07 17:48 53.26578 -1.88818 36020 ft 424 kts 329°
2026-05-07 17:49 53.31720 -1.93645 36018 ft 424 kts 329°
2026-05-07 17:49 53.36856 -1.98531 36016 ft 425 kts 328°
2026-05-07 17:50 53.41999 -2.03433 36018 ft 425 kts 328°
2026-05-07 17:50 53.47146 -2.08351 36018 ft 426 kts 328°
2026-05-07 17:51 53.52294 -2.13286 36018 ft 426 kts 328°
2026-05-07 17:51 53.57302 -2.18600 36013 ft 424 kts 317°
2026-05-07 17:52 53.61044 -2.26139 35995 ft 420 kts 297°
2026-05-07 17:52 53.63339 -2.35155 35990 ft 420 kts 289°
2026-05-07 17:53 53.65356 -2.43941 35980 ft 422 kts 289°
2026-05-07 17:53 53.67471 -2.53172 35980 ft 423 kts 289°
2026-05-07 17:54 53.69586 -2.62437 35988 ft 423 kts 289°
2026-05-07 17:54 53.71692 -2.71722 35978 ft 424 kts 288°
2026-05-07 17:55 53.73785 -2.81038 35982 ft 425 kts 288°
2026-05-07 17:55 53.75874 -2.90391 35985 ft 426 kts 288°
2026-05-07 17:56 53.77951 -2.99738 35998 ft 420 kts 288°
2026-05-07 17:56 53.78960 -3.04284 36001 ft 405 kts 287°
2026-05-07 17:56 53.79942 -3.08701 36002 ft 398 kts 287°
2026-05-07 17:57 53.81552 -3.15941 36002 ft 395 kts 287°
2026-05-07 17:57 53.83786 -3.26094 36000 ft 393 kts 287°
2026-05-07 17:58 53.85686 -3.34781 35998 ft 393 kts 287°
2026-05-07 17:58 53.86641 -3.39165 35388 ft 402 kts 287°
2026-05-07 17:58 53.87608 -3.43618 34929 ft 400 kts 287°
2026-05-07 17:59 53.88569 -3.48041 34401 ft 401 kts 287°
2026-05-07 17:59 53.89532 -3.52470 33912 ft 400 kts 287°
2026-05-07 17:59 53.90492 -3.56886 33404 ft 399 kts 287°
2026-05-07 17:59 53.91440 -3.61257 33157 ft 390 kts 287°
2026-05-07 18:00 53.92363 -3.65520 33012 ft 380 kts 286°
2026-05-07 18:00 53.93263 -3.69690 32762 ft 374 kts 286°
2026-05-07 18:00 53.94150 -3.73819 32361 ft 372 kts 286°
2026-05-07 18:00 53.95032 -3.77938 31905 ft 371 kts 286°
2026-05-07 18:01 53.95864 -3.82079 31436 ft 369 kts 281°
2026-05-07 18:01 53.96363 -3.86328 30972 ft 366 kts 275°
2026-05-07 18:01 53.96740 -3.90611 30376 ft 370 kts 275°
2026-05-07 18:01 53.97124 -3.94979 30037 ft 379 kts 275°
2026-05-07 18:02 53.97918 -4.03915 29506 ft 386 kts 275°
2026-05-07 18:02 53.98322 -4.08496 28463 ft 396 kts 275°
2026-05-07 18:02 53.98730 -4.13119 27793 ft 395 kts 275°
2026-05-07 18:03 53.99199 -4.17689 27352 ft 391 kts 281°
2026-05-07 18:03 54.00111 -4.22033 26923 ft 390 kts 292°
2026-05-07 18:03 54.01493 -4.25979 26482 ft 388 kts 302°
2026-05-07 18:03 54.03047 -4.29706 26018 ft 385 kts 302°
2026-05-07 18:04 54.04566 -4.33367 25565 ft 383 kts 302°
2026-05-07 18:04 54.06090 -4.37055 25099 ft 381 kts 302°
2026-05-07 18:04 54.07608 -4.40736 24630 ft 378 kts 302°
2026-05-07 18:04 54.09114 -4.44396 24159 ft 376 kts 302°
2026-05-07 18:05 54.10614 -4.48035 23694 ft 374 kts 302°
2026-05-07 18:05 54.12106 -4.51655 23168 ft 372 kts 301°
2026-05-07 18:05 54.13583 -4.55247 22726 ft 368 kts 301°
2026-05-07 18:05 54.15040 -4.58799 22271 ft 364 kts 301°
2026-05-07 18:06 54.16481 -4.62321 21829 ft 360 kts 301°
2026-05-07 18:06 54.17907 -4.65807 21399 ft 356 kts 301°
2026-05-07 18:06 54.19321 -4.69261 20964 ft 353 kts 301°
2026-05-07 18:06 54.20719 -4.72678 20544 ft 349 kts 301°
2026-05-07 18:07 54.22104 -4.76063 20135 ft 346 kts 301°
2026-05-07 18:07 54.23474 -4.79424 19720 ft 343 kts 301°
2026-05-07 18:07 54.24831 -4.82761 19313 ft 340 kts 301°
2026-05-07 18:07 54.26176 -4.86077 18911 ft 338 kts 301°
2026-05-07 18:08 54.27508 -4.89370 18509 ft 336 kts 301°
2026-05-07 18:08 54.28835 -4.92657 18089 ft 334 kts 301°
2026-05-07 18:08 54.30153 -4.95921 17679 ft 332 kts 301°
2026-05-07 18:08 54.31458 -4.99151 17296 ft 329 kts 301°
2026-05-07 18:09 54.32752 -5.02357 16904 ft 326 kts 301°
2026-05-07 18:09 54.34035 -5.05538 16532 ft 323 kts 301°
2026-05-07 18:09 54.35309 -5.08695 16168 ft 321 kts 301°
2026-05-07 18:09 54.36572 -5.11833 15805 ft 319 kts 301°
2026-05-07 18:10 54.37825 -5.14953 15448 ft 317 kts 301°
2026-05-07 18:10 54.39072 -5.18055 15088 ft 315 kts 301°
2026-05-07 18:10 54.40311 -5.21142 14731 ft 313 kts 301°
2026-05-07 18:10 54.41541 -5.24217 14375 ft 312 kts 300°
2026-05-07 18:11 54.42761 -5.27279 14028 ft 310 kts 300°
2026-05-07 18:11 54.43568 -5.29305 13787 ft 310 kts 300°
2026-05-07 18:11 54.45209 -5.33353 13273 ft 308 kts 305°
2026-05-07 18:11 54.46573 -5.36184 12901 ft 306 kts 305°
2026-05-07 18:12 54.47887 -5.39055 12368 ft 308 kts 304°
2026-05-07 18:12 54.49196 -5.42000 11655 ft 311 kts 303°
2026-05-07 18:12 54.50500 -5.44960 11069 ft 310 kts 303°
2026-05-07 18:12 54.51799 -5.47902 10509 ft 307 kts 304°
2026-05-07 18:13 54.53089 -5.50803 9917 ft 303 kts 304°
2026-05-07 18:13 54.54349 -5.53620 9576 ft 290 kts 304°
2026-05-07 18:13 54.55567 -5.56330 9043 ft 284 kts 304°
2026-05-07 18:13 54.56769 -5.59005 8435 ft 281 kts 304°
2026-05-07 18:14 54.57958 -5.61656 7833 ft 278 kts 304°
2026-05-07 18:14 54.59135 -5.64281 7257 ft 274 kts 304°
2026-05-07 18:14 54.60284 -5.66844 6753 ft 269 kts 304°
2026-05-07 18:14 54.61424 -5.69398 6194 ft 266 kts 304°
2026-05-07 18:15 54.62548 -5.71914 5584 ft 263 kts 304°
2026-05-07 18:15 54.63658 -5.74404 4970 ft 261 kts 304°
2026-05-07 18:15 54.64732 -5.76813 4757 ft 243 kts 303°
2026-05-07 18:15 54.65722 -5.79033 4627 ft 224 kts 303°
2026-05-07 18:16 54.66639 -5.81090 4458 ft 209 kts 303°
2026-05-07 18:16 54.67509 -5.83055 4108 ft 204 kts 302°
2026-05-07 18:16 54.68367 -5.84996 3900 ft 204 kts 303°
2026-05-07 18:16 54.69230 -5.86949 3645 ft 204 kts 302°
2026-05-07 18:17 54.70084 -5.88885 3420 ft 201 kts 302°
2026-05-07 18:17 54.70930 -5.90800 3240 ft 198 kts 302°
2026-05-07 18:17 54.71756 -5.92673 3129 ft 192 kts 302°
2026-05-07 18:17 54.72300 -5.94678 3041 ft 180 kts 277°
2026-05-07 18:18 54.72299 -5.96791 3030 ft 175 kts 254°
2026-05-07 18:18 54.71864 -5.98732 2926 ft 173 kts 243°
2026-05-07 18:18 54.71369 -6.00585 2754 ft 168 kts 243°
2026-05-07 18:18 54.70884 -6.02403 2485 ft 165 kts 242°
2026-05-07 18:19 54.70405 -6.04195 2263 ft 162 kts 242°
2026-05-07 18:19 54.69945 -6.05922 2049 ft 154 kts 242°
2026-05-07 18:19 54.69500 -6.07585 1841 ft 152 kts 242°
2026-05-07 18:19 54.69058 -6.09238 1650 ft 150 kts 240°
2026-05-07 18:20 54.68631 -6.10836 1440 ft 143 kts 241°
2026-05-07 18:20 54.68225 -6.12352 1230 ft 135 kts 241°
2026-05-07 18:20 54.67834 -6.13811 1032 ft 134 kts 240°
2026-05-07 18:20 54.67439 -6.15253 907 ft 131 kts 239°
2026-05-07 18:21 54.67058 -6.16693 726 ft 132 kts 243°
2026-05-07 18:21 54.66679 -6.18146 525 ft 132 kts 238°
2026-05-07 18:21 54.66285 -6.19590 324 ft 133 kts 240°
2026-05-07 18:21 54.65913 -6.20967 272 ft 113 kts 245°
2026-05-07 18:22 54.65725 -6.21663 272 ft 80 kts 245°
2026-05-07 18:22 54.65602 -6.22126 274 ft 48 kts 245°
2026-05-07 18:22 54.65483 -6.22571 272 ft 15 kts 245°
2026-05-07 18:22 54.65498 -6.22696 275 ft 12 kts 339°
2026-05-07 18:23 54.65582 -6.22744 272 ft 13 kts 342°
2026-05-07 18:23 54.65676 -6.22795 272 ft 15 kts 348°
2026-05-07 18:23 54.65742 -6.22692 272 ft 15 kts 84°
2026-05-07 18:23 54.65752 -6.22510 274 ft 16 kts 82°
2026-05-07 18:24 54.65765 -6.22318 272 ft 17 kts 83°
2026-05-07 18:24 54.65789 -6.22120 272 ft 17 kts 73°
2026-05-07 18:24 54.65837 -6.21932 272 ft 17 kts 65°
2026-05-07 18:24 54.65889 -6.21739 274 ft 18 kts 65°
2026-05-07 18:25 54.65943 -6.21540 272 ft 19 kts 65°
2026-05-07 18:25 54.65999 -6.21335 275 ft 18 kts 65°
2026-05-07 18:25 54.66036 -6.21215 273 ft 8 kts 42°
2026-05-07 18:25 54.66080 -6.21223 272 ft 6 kts 333°
2026-05-07 18:26 54.66119 -6.21256 274 ft 6 kts 334°
2026-05-07 18:26 54.66150 -6.21281 274 ft 5 kts 335°
2026-05-07 18:26 54.66182 -6.21306 274 ft 5 kts 335°
2026-05-07 18:26 54.66197 -6.21338 272 ft 3 kts 290°
2026-05-07 18:27 54.66194 -6.21369 272 ft 2 kts 251°
2026-05-07 18:27 54.66186 -6.21392 272 ft 3 kts 239°
2026-05-07 18:27 54.66181 -6.21411 275 ft 1 kts 242°
2026-05-07 18:27 54.66180 -6.21416 275 ft 0 kts 245°